Weather History for Honolulu, HI

Change the Weather History Date:

Friday, November 23, 2012

  Actual Average Record
Temperature  
Mean Temperature 76 °F 77 °F  
Max Temperature 83 °F 83 °F 87 °F (1968)
Min Temperature 68 °F 71 °F 62 °F (1958)
Degree Days  
Heating Degree Days 0 0  
Month to date heating degree days 0 0  
Since 1 July heating degree days 0 0  
Cooling Degree Days 11 12  
Month to date cooling degree days 265 299  
Year to date cooling degree days 4130 4245  
Growing Degree Days 25 (Base 50)    
Moisture  
Dew Point 68 °F    
Average Humidity 81    
Maximum Humidity 97    
Minimum Humidity 65    
Precipitation  
Precipitation 0.02 in 0.07 in 0.80 in (1967)
Month to date precipitation 0.20 1.87  
Year to date precipitation 8.57 13.31  
Snow  
Snow 0.00 in - - ()
Month to date snowfall 0.0  
Since 1 July snowfall 0.0  
Since 1 September snowfall 0.0  
Snow Depth 0.00 in    
Sea Level Pressure  
Sea Level Pressure 29.95 in    
Wind  
Wind Speed 5 mph (NW)    
Max Wind Speed 17 mph    
Max Gust Speed 21 mph    
Visibility 10 miles    
Events Rain , Thunderstorm    
T = Trace of Precipitation, MM = Missing Value Source: NWS Daily Summary

Daily Weather History Graph

Daily Weather History Graph

Search for Another Location

Airport:

Trip Planner

Search our weather history database for the weather conditions in past years. The results will help you decide how hot, cold, wet, or windy it might be!

Date:

Astronomy

Nov. 23, 2012 Rise Set
Actual Time 6:48 AM HST 5:48 PM HST
Civil Twilight 6:24 AM HST 6:12 PM HST
Nautical Twilight 5:57 AM HST 6:39 PM HST
Astronomical Twilight 5:30 AM HST 7:06 PM HST
Moon 2:44 PM HST (11/23) 2:45 AM HST (11/23)
Length of Visible Light 11h 47m
Length of Day
11h 00m
Waxing Gibbous, 81% of the Moon is Illuminated
Nov 23
Waxing Gibbous
Nov 28
Full
Dec 6
Last Quarter
Dec 12
New
Dec 19
First Quarter

Hourly Weather History & Observations

Time (HST) Temp. Heat Index Dew Point Humidity Pressure Visibility Wind Dir Wind Speed Gust Speed Precip Events Conditions
12:53 AM 70.0 °F - 68.0 °F 93% 29.96 in 10.0 mi North 3.5 mph - N/A   Partly Cloudy
1:53 AM 70.0 °F - 68.0 °F 93% 29.95 in 10.0 mi Calm Calm - N/A   Scattered Clouds
2:53 AM 70.0 °F - 68.0 °F 93% 29.93 in 10.0 mi NNW 3.5 mph - N/A   Scattered Clouds
3:53 AM 69.1 °F - 68.0 °F 96% 29.93 in 10.0 mi NNW 3.5 mph - N/A   Partly Cloudy
4:53 AM 69.1 °F - 68.0 °F 96% 29.93 in 10.0 mi NNW 3.5 mph - N/A   Partly Cloudy
5:53 AM 69.1 °F - 66.9 °F 93% 29.94 in 10.0 mi Calm Calm - N/A   Partly Cloudy
6:53 AM 69.1 °F - 66.9 °F 93% 29.96 in 10.0 mi Calm Calm - N/A   Partly Cloudy
7:53 AM 72.0 °F - 68.0 °F 87% 29.97 in 10.0 mi NNW 3.5 mph - N/A   Partly Cloudy
8:53 AM 75.9 °F - 68.0 °F 76% 29.98 in 10.0 mi NNW 3.5 mph - N/A   Partly Cloudy
9:53 AM 79.0 °F - 68.0 °F 69% 29.99 in 10.0 mi South 3.5 mph - N/A   Partly Cloudy
10:53 AM 79.0 °F - 69.1 °F 72% 29.98 in 10.0 mi South 6.9 mph - N/A   Scattered Clouds
11:53 AM 80.1 °F 83.2 °F 70.0 °F 71% 29.95 in 10.0 mi South 9.2 mph - N/A   Scattered Clouds
12:53 PM 82.0 °F 85.5 °F 69.1 °F 65% 29.92 in 10.0 mi South 8.1 mph - N/A   Scattered Clouds
1:53 PM 82.0 °F 85.9 °F 70.0 °F 67% 29.90 in 10.0 mi WSW 10.4 mph - N/A   Scattered Clouds
2:50 PM 78.8 °F - 69.8 °F 74% 29.91 in 10.0 mi WSW 11.5 mph - N/A Thunderstorm Thunderstorm
2:53 PM 80.1 °F 83.2 °F 70.0 °F 71% 29.91 in - WSW 13.8 mph - N/A Rain , Thunderstorm Light Thunderstorms and Rain
3:53 PM 75.0 °F - 66.9 °F 76% 29.92 in 10.0 mi North 4.6 mph - 0.02 in Rain Light Rain
4:53 PM 75.9 °F - 70.0 °F 82% 29.92 in 10.0 mi NNW 5.8 mph - 0.00 in   Scattered Clouds
5:53 PM 75.9 °F - 69.1 °F 79% 29.94 in 10.0 mi NNE 6.9 mph - N/A   Scattered Clouds
6:53 PM 75.0 °F - 68.0 °F 79% 29.96 in 10.0 mi NNE 4.6 mph - N/A   Partly Cloudy
7:53 PM 75.0 °F - 68.0 °F 79% 29.99 in 10.0 mi Calm Calm - N/A   Partly Cloudy
8:53 PM 73.9 °F - 68.0 °F 82% 30.00 in 10.0 mi NNW 3.5 mph - N/A   Partly Cloudy
9:53 PM 72.0 °F - 69.1 °F 91% 30.01 in 10.0 mi North 4.6 mph - N/A   Partly Cloudy
10:53 PM 71.1 °F - 66.9 °F 87% 29.99 in 10.0 mi North 3.5 mph - N/A   Partly Cloudy
11:53 PM 70.0 °F - 66.0 °F 87% 29.98 in 10.0 mi Variable 3.5 mph - N/A   Partly Cloudy